Tracking 28792 objects as of 25-Apr-2024
HD Live streaming from Space Station
objects crossing your sky now

STARLINK-31365

Track STARLINK-31365 now!
10-day predictions
STARLINK-31365 is classified as:


NORAD ID: 58973
Int'l Code: 2024-031J
Perigee: 487.6 km
Apogee: 489.8 km
Inclination: 53.2 °
Period: 94.2 minutes
Semi major axis: 6859 km
RCS: Unknown
Launch date: February 15, 2023
Source: United States (US)
Launch site: AIR FORCE WESTERN TEST RANGE (AFWTR)
Your satellite tracking list
Your tracking list is empty




NASA's NSSDC Master Catalog

Two Line Element Set (TLE):
1 58973U 24031J   24115.64591336  .00015968  00000-0  58697-3 0  9999
2 58973  53.1597 233.9713 0001587  69.1301 290.9868 15.28071756 11807
Source of the keplerian elements: AFSPC